Location: Brantley
(31.5822°N, 86.2569°W)
Time: 02:52:51
(UTC+00:00)

Vanguard 3 - Pass Details

Date: 24 February 2026
Orbit: 507 x 3205 km, 33.4° (Epoch: 7 March)

Event Time Altitude Azimuth Distance (km) Brightness Sun altitude
Rises 17:54:46 0° 227° (SW) 7,145 12.3 49.2°
Reaches altitude 10° 17:59:53 10° 223° (SW) 6,075 12.2 49.2°
Maximum altitude 18:17:40 54° 153° (SSE) 2,952 11.6 48.9°
Drops below altitude 10° 18:29:24 10° 80° (E) 4,170 10.7 48.5°
Sets 18:32:11 0° 76° (ENE) 4,854 10.9 48.4°
